| time (UTC) | temp F | wind direction | speed MPH | gust MPH | rain 1hr in | rain 24hr in | rain mn in | humidity % | barometer mb |
| 20260507081510 | 47 | 19 | 0.0 | 4.0 | 0.07 | 0.27 | 0.10 | 91 | 1009.4 |
| 20260507080013 | 47 | 25 | 0.0 | 0.0 | 0.08 | 0.27 | 0.10 | 92 | 1009.4 |
| 20260507074524 | 47 | 37 | 2.0 | 9.0 | 0.07 | 0.25 | 0.08 | 91 | 1009.4 |
| 20260507073004 | 48 | 341 | 0.0 | 0.0 | 0.04 | 0.22 | 0.05 | 92 | 1009.8 |
| 20260507071510 | 48 | 51 | 0.0 | 0.0 | 0.03 | 0.20 | 0.03 | 91 | 1009.5 |
| 20260507070013 | 49 | 352 | 0.0 | 0.0 | 0.02 | 0.19 | 0.02 | 91 | 1009.0 |
| 20260507064519 | 49 | 348 | 0.0 | 0.0 | 0.01 | 0.18 | 0.01 | 91 | 1009.6 |
| 20260507063034 | 49 | 13 | 0.0 | 0.0 | 0.01 | 0.18 | 0.01 | 91 | 1009.0 |
| 20260507061532 | 49 | 9 | 0.0 | 0.0 | 0.00 | 0.17 | 0.00 | 91 | 1008.9 |
| 20260507060013 | 49 | 25 | 0.0 | 0.0 | 0.00 | 0.17 | 0.00 | 91 | 1008.4 |
| 20260507054514 | 50 | 10 | 0.0 | 0.0 | 0.00 | 0.17 | 0.00 | 91 | 1008.7 |
| 20260507053021 | 50 | 19 | 0.0 | 0.0 | 0.00 | 0.17 | 0.00 | 91 | 1008.7 |
| 20260507051525 | 50 | 5 | 0.0 | 5.0 | 0.00 | 0.17 | 0.00 | 91 | 1009.1 |
| 20260507050034 | 50 | 352 | 0.0 | 0.0 | 0.00 | 0.17 | 0.00 | 91 | 1009.1 |
| 20260507044512 | 50 | 21 | 0.0 | 0.0 | 0.00 | 0.17 | 0.00 | 91 | 1009.3 |
| 20260507043015 | 50 | 9 | 0.0 | 0.0 | 0.00 | 0.17 | 0.00 | 92 | 1009.2 |
| 20260507041520 | 51 | 25 | 0.0 | 0.0 | 0.00 | 0.17 | 0.00 | 92 | 1009.3 |
| 20260507040026 | 51 | 12 | 0.0 | 0.0 | 0.00 | 0.17 | 0.00 | 92 | 1008.8 |
| 20260507034534 | 51 | 11 | 0.0 | 0.0 | 0.00 | 0.17 | 0.17 | 92 | 1008.9 |
| 20260507033013 | 52 | 10 | 0.0 | 0.0 | 0.01 | 0.17 | 0.17 | 92 | 1009.1 |
| 20260507031516 | 52 | 9 | 0.0 | 5.0 | 0.02 | 0.17 | 0.17 | 92 | 1009.3 |
| 20260507030023 | 53 | 14 | 0.0 | 0.0 | 0.04 | 0.17 | 0.17 | 92 | 1009.2 |
| 20260507024526 | 53 | 24 | 0.0 | 7.0 | 0.04 | 0.17 | 0.17 | 92 | 1009.3 |
| 20260507023026 | 54 | 29 | 3.0 | 9.0 | 0.03 | 0.16 | 0.16 | 92 | 1009.0 |
| 20260507021512 | 59 | 40 | 6.0 | 14.0 | 0.02 | 0.15 | 0.15 | 92 | 1008.7 |
| 20260507020029 | 60 | 311 | 0.0 | 8.0 | 0.00 | 0.13 | 0.13 | 93 | 1008.2 |
| 20260507014504 | 60 | 186 | 0.0 | 0.0 | 0.00 | 0.13 | 0.13 | 93 | 1008.1 |
| 20260507013005 | 60 | 191 | 0.0 | 6.0 | 0.00 | 0.13 | 0.13 | 93 | 1008.1 |
| 20260507011509 | 60 | 220 | 0.0 | 4.0 | 0.00 | 0.13 | 0.13 | 93 | 1007.9 |
| 20260507010014 | 60 | 226 | 0.0 | 8.0 | 0.01 | 0.13 | 0.13 | 93 | 1008.0 |
| 20260507004521 | 59 | 247 | 0.0 | 7.0 | 0.01 | 0.13 | 0.13 | 93 | 1007.7 |
| 20260507003006 | 59 | 205 | 0.0 | 0.0 | 0.01 | 0.13 | 0.13 | 93 | 1007.8 |
| 20260507001508 | 59 | 214 | 0.0 | 0.0 | 0.01 | 0.13 | 0.13 | 93 | 1007.9 |
| 20260507000010 | 59 | 221 | 0.0 | 0.0 | 0.00 | 0.12 | 0.12 | 93 | 1007.7 |
| 20260506234519 | 59 | 169 | 0.0 | 0.0 | 0.00 | 0.12 | 0.12 | 93 | 1007.8 |
| 20260506233017 | 59 | 198 | 0.0 | 2.0 | 0.00 | 0.12 | 0.12 | 93 | 1007.7 |
| 20260506231503 | 59 | 282 | 0.0 | 10.0 | 0.00 | 0.12 | 0.12 | 93 | 1007.6 |
| 20260506230005 | 59 | 198 | 0.0 | 0.0 | 0.00 | 0.12 | 0.12 | 93 | 1007.4 |
| 20260506224511 | 59 | 166 | 0.0 | 5.0 | 0.00 | 0.12 | 0.12 | 93 | 1007.3 |
| 20260506223016 | 59 | 180 | 0.0 | 2.0 | 0.00 | 0.12 | 0.12 | 93 | 1007.2 |
| 20260506221522 | 59 | 222 | 1.0 | 13.0 | 0.00 | 0.12 | 0.12 | 93 | 1007.2 |
| 20260506220015 | 59 | 154 | 0.0 | 0.0 | 0.00 | 0.12 | 0.12 | 93 | 1007.1 |
| 20260506214508 | 59 | 228 | 0.0 | 6.0 | 0.00 | 0.12 | 0.12 | 92 | 1007.2 |
| 20260506213013 | 59 | 192 | 0.0 | 0.0 | 0.01 | 0.12 | 0.12 | 92 | 1007.1 |
| 20260506211524 | 59 | 211 | 0.0 | 0.0 | 0.01 | 0.12 | 0.12 | 92 | 1007.0 |
| 20260506210032 | 59 | 218 | 0.0 | 4.0 | 0.02 | 0.12 | 0.12 | 92 | 1007.1 |
| 20260506204506 | 59 | 169 | 0.0 | 0.0 | 0.04 | 0.12 | 0.12 | 92 | 1007.2 |
| 20260506203008 | 59 | 167 | 0.0 | 0.0 | 0.04 | 0.11 | 0.11 | 92 | 1007.4 |
| 20260506201516 | 59 | 164 | 0.0 | 0.0 | 0.05 | 0.11 | 0.11 | 92 | 1007.6 |
| 20260506200034 | 58 | 134 | 0.0 | 0.0 | 0.05 | 0.10 | 0.10 | 92 | 1007.7 |
| 20260506194525 | 58 | 174 | 0.0 | 0.0 | 0.03 | 0.08 | 0.08 | 92 | 1007.8 |
| 20260506193007 | 58 | 122 | 0.0 | 7.0 | 0.02 | 0.07 | 0.07 | 92 | 1007.9 |
| 20260506191510 | 58 | 180 | 0.0 | 4.0 | 0.01 | 0.06 | 0.06 | 91 | 1007.9 |
| 20260506190019 | 58 | 235 | 0.0 | 6.0 | 0.01 | 0.05 | 0.05 | 91 | 1008.1 |
| 20260506184521 | 58 | 186 | 0.0 | 6.0 | 0.02 | 0.05 | 0.05 | 91 | 1008.2 |
| 20260506183025 | 58 | 234 | 0.0 | 0.0 | 0.03 | 0.05 | 0.05 | 91 | 1008.3 |
| 20260506181526 | 58 | 217 | 0.0 | 0.0 | 0.04 | 0.05 | 0.05 | 90 | 1008.8 |
| 20260506180017 | 58 | 152 | 0.0 | 2.0 | 0.04 | 0.04 | 0.04 | 90 | 1008.6 |
| 20260506174517 | 59 | 172 | 0.0 | 5.0 | 0.03 | 0.03 | 0.03 | 89 | 1008.5 |
| 20260506173024 | 60 | 156 | 0.0 | 0.0 | 0.02 | 0.02 | 0.02 | 87 | 1008.6 |
| 20260506171525 | 61 | 137 | 0.0 | 0.0 | 0.01 | 0.01 | 0.01 | 84 | 1008.8 |
| 20260506170027 | 62 | 190 | 0.0 | 1.0 | 0.00 | 0.00 | 0.00 | 81 | 1009.6 |
| 20260506164515 | 63 | 163 | 0.0 | 0.0 | 0.00 | 0.00 | 0.00 | 79 | 1009.5 |
| 20260506163023 | 64 | 162 | 0.0 | 0.0 | 0.00 | 0.00 | 0.00 | 77 | 1009.7 |
| 20260506161524 | 64 | 118 | 0.0 | 7.0 | 0.00 | 0.00 | 0.00 | 77 | 1009.6 |
| 20260506160028 | 64 | 195 | 0.0 | 9.0 | 0.00 | 0.00 | 0.00 | 76 | 1009.7 |
| 20260506154529 | 65 | 213 | 0.0 | 7.0 | 0.00 | 0.00 | 0.00 | 74 | 1009.9 |
| 20260506153016 | 66 | 150 | 0.0 | 1.0 | 0.00 | 0.00 | 0.00 | 74 | 1010.1 |
| 20260506151522 | 65 | 227 | 0.0 | 7.0 | 0.00 | 0.00 | 0.00 | 74 | 1010.0 |
| 20260506150024 | 65 | 203 | 0.0 | 9.0 | 0.00 | 0.00 | 0.00 | 74 | 1010.0 |
| 20260506144531 | 66 | 185 | 0.0 | 10.0 | 0.00 | 0.00 | 0.00 | 73 | 1010.0 |
| 20260506143033 | 65 | 154 | 0.0 | 9.0 | 0.00 | 0.00 | 0.00 | 75 | 1010.1 |
| 20260506141517 | 65 | 223 | 0.0 | 7.0 | 0.00 | 0.00 | 0.00 | 76 | 1010.4 |
| 20260506140021 | 64 | 68 | 0.0 | 0.0 | 0.00 | 0.00 | 0.00 | 76 | 1010.0 |
| 20260506134526 | 64 | 209 | 0.0 | 1.0 | 0.00 | 0.00 | 0.00 | 77 | 1010.3 |
| 20260506133028 | 63 | 224 | 0.0 | 5.0 | 0.00 | 0.00 | 0.00 | 79 | 1010.2 |
| 20260506131535 | 63 | 211 | 0.0 | 10.0 | 0.00 | 0.00 | 0.00 | 79 | 1010.2 |
| 20260506130021 | 62 | 161 | 0.0 | 9.0 | 0.00 | 0.00 | 0.00 | 80 | 1010.2 |
| 20260506124527 | 62 | 227 | 0.0 | 7.0 | 0.00 | 0.00 | 0.00 | 81 | 1010.2 |
| 20260506123037 | 62 | 128 | 0.0 | 6.0 | 0.00 | 0.00 | 0.00 | 82 | 1010.5 |
| 20260506121527 | 61 | 144 | 0.0 | 0.0 | 0.00 | 0.00 | 0.00 | 83 | 1010.9 |
| 20260506120037 | 60 | 104 | 0.0 | 3.0 | 0.00 | 0.00 | 0.00 | 84 | 1010.7 |
| 20260506114524 | 59 | 188 | 0.0 | 0.0 | 0.00 | 0.00 | 0.00 | 86 | 1010.6 |
| 20260506113025 | 58 | 149 | 0.0 | 4.0 | 0.00 | 0.00 | 0.00 | 86 | 1010.6 |
| 20260506111528 | 58 | 207 | 0.0 | 0.0 | 0.00 | 0.00 | 0.00 | 87 | 1010.6 |
| 20260506110027 | 57 | 225 | 0.0 | 0.0 | 0.00 | 0.00 | 0.00 | 88 | 1011.0 |
| 20260506104531 | 57 | 185 | 0.0 | 0.0 | 0.00 | 0.00 | 0.00 | 88 | 1010.8 |
| 20260506103028 | 57 | 155 | 0.0 | 2.0 | 0.00 | 0.00 | 0.00 | 88 | 1010.5 |
| 20260506101526 | 56 | 71 | 0.0 | 0.0 | 0.00 | 0.00 | 0.00 | 88 | 1010.8 |
| 20260506100012 | 57 | 71 | 0.0 | 0.0 | 0.00 | 0.00 | 0.00 | 87 | 1010.6 |
| 20260506094527 | 57 | 205 | 0.0 | 0.0 | 0.00 | 0.00 | 0.00 | 87 | 1010.6 |
| 20260506093034 | 57 | 64 | 0.0 | 0.0 | 0.00 | 0.00 | 0.00 | 87 | 1010.4 |
| 20260506091525 | 57 | 215 | 0.0 | 0.0 | 0.00 | 0.00 | 0.00 | 88 | 1010.6 |
| 20260506090028 | 56 | 237 | 0.0 | 0.0 | 0.00 | 0.00 | 0.00 | 87 | 1010.6 |
| 20260506084512 | 56 | 246 | 0.0 | 0.0 | 0.00 | 0.00 | 0.00 | 87 | 1010.9 |
| 20260506083018 | 56 | 225 | 0.0 | 0.0 | 0.00 | 0.00 | 0.00 | 87 | 1011.0 |